Find Starlink 31593

NORAD ID: 59350 Int'l Des: 2024-060 Owner: SPXS Country: US Constellation: starlink operational
LEOCIRCULAR

Current View

Loading 3D Globe...

About Starlink 31593

Starlink 31593 (NORAD 59350) is a starlink constellation satellite (v2 mini) launched Mar 31, 2024 by SPXS of US. It operates in LEO, CIRCULAR orbit with a mass of 730.00 kg.

About Starlink 31593

Description loading...

Upcoming Passes

Passes for default location (London). Set your location on the main map for personalized predictions.

Altitude History

Loading altitude history...

Two-Line Element Set

1 59350U 24060C 26171.32232595 -.00000027 00000-0 85573-5 0 9995
2 59350 43.0032 39.8583 0001103 273.2661 86.8064 15.27578353125763
Epoch: Jun 20, 2026 • Age: 23 hours

Current Status

Altitude 482.5 km
Velocity 7.63 km/s
Sub-Earth Point 6.14°N, 158.3°W
Launch Date Mar 31, 2024
Age 2.2 years
Type internet

Technical Details

Classification Payload
Mass 730.00 kg
Dry Mass 700.00 kg
Total Mass 730.00 kg
Length 0.30 m
Diameter 4.10 m
Span 29.00 m
Shape Box + pan
Manufacturer SPXS
Bus Type Starlink V2M
Phase Status In Orbit
Owner/State SPXS/US

Most Searched